Weather History for KDIK - September, 2012

Change the Weather History Date:

Thursday, September 27, 2012

  Actual Average Record
Temperature  
Mean Temperature 65 °F 52 °F  
Max Temperature 77 °F 66 °F 93 °F (1905)
Min Temperature 53 °F 38 °F 14 °F (1928)
Degree Days  
Heating Degree Days 0 13  
Month to date heating degree days 175 225  
Since 1 July heating degree days 215 311  
Cooling Degree Days 0 0  
Month to date cooling degree days 33 30  
Year to date cooling degree days 587 416  
Growing Degree Days 14 (Base 50)    
Moisture  
Dew Point 41 °F    
Average Humidity 47    
Maximum Humidity 63    
Minimum Humidity 31    
Precipitation  
Precipitation T in 0.05 in 0.83 in (1982)
Month to date precipitation 0.16 1.33  
Year to date precipitation 8.58 13.62  
Sea Level Pressure  
Sea Level Pressure 30.06 in    
Wind  
Wind Speed 6 mph (WSW)    
Max Wind Speed 17 mph    
Max Gust Speed 25 mph    
Visibility 10 miles    
Events Rain    
T = Trace of Precipitation, MM = Missing Value Source: NWS Daily Summary

Daily Weather History Graph

Daily Weather History Graph

Search for Another Location

Airport or City:

Trip Planner

Search our weather history database for the weather conditions in past years. The results will help you decide how hot, cold, wet, or windy it might be!

Date:

Astronomy

Sep. 27, 2012 Rise Set
Actual Time 6:45 AM MDT 6:37 PM MDT
Civil Twilight 6:15 AM MDT 7:07 PM MDT
Nautical Twilight 5:39 AM MDT 7:43 PM MDT
Astronomical Twilight 5:03 AM MDT 8:19 PM MDT
Moon 5:15 PM MDT (9/27) 4:09 AM MDT (9/27)
Length of Visible Light 12h 52m
Length of Day
11h 52m
Waxing Gibbous, 94% of the Moon is Illuminated
Sep 27
Waxing Gibbous
Sep 29
Full
Oct 8
Last Quarter
Oct 15
New
Oct 21
First Quarter

Hourly Weather History & Observations

Time (MDT) Temp. Dew Point Humidity Pressure Visibility Wind Dir Wind Speed Gust Speed Precip Events Conditions
12:56 AM 60.1 °F 34.0 °F 38% 30.03 in 10.0 mi SW 10.4 mph - N/A   Clear
1:56 AM 54.0 °F 34.0 °F 47% 30.04 in 10.0 mi SSW 8.1 mph - N/A   Clear
2:56 AM 57.0 °F 35.1 °F 44% 30.01 in 10.0 mi South 9.2 mph - N/A   Mostly Cloudy
3:56 AM 55.9 °F 35.1 °F 45% 30.03 in 10.0 mi South 8.1 mph - N/A   Mostly Cloudy
4:56 AM 57.9 °F 36.0 °F 44% 30.03 in 10.0 mi South 8.1 mph - N/A   Mostly Cloudy
5:56 AM 55.0 °F 37.0 °F 51% 30.04 in 10.0 mi South 6.9 mph - 0.00 in   Mostly Cloudy
6:56 AM 57.9 °F 37.0 °F 46% 30.06 in 10.0 mi South 8.1 mph 21.9 mph 0.00 in   Overcast
7:56 AM 59.0 °F 37.9 °F 46% 30.07 in 10.0 mi Calm Calm - N/A   Overcast
8:56 AM 66.9 °F 37.9 °F 34% 30.08 in 10.0 mi WSW 8.1 mph - N/A   Overcast
9:56 AM 62.1 °F 46.9 °F 58% 30.09 in 10.0 mi West 15.0 mph - 0.00 in Rain Light Rain
10:56 AM 64.9 °F 51.1 °F 61% 30.09 in 10.0 mi WSW 4.6 mph - 0.00 in Rain Light Rain
11:56 AM 70.0 °F 51.1 °F 51% 30.07 in 10.0 mi WNW 4.6 mph - 0.00 in   Clear
1:56 PM 75.0 °F 43.0 °F 32% 30.06 in 10.0 mi NW 6.9 mph - N/A   Scattered Clouds
3:56 PM 73.0 °F 43.0 °F 34% 30.05 in 10.0 mi West 3.5 mph - N/A   Clear
4:56 PM 73.9 °F 43.0 °F 33% 30.05 in 10.0 mi Calm Calm - N/A   Scattered Clouds
5:56 PM 68.0 °F 44.1 °F 42% 30.06 in 10.0 mi WSW 3.5 mph - N/A   Clear
6:56 PM 62.1 °F 43.0 °F 50% 30.08 in 10.0 mi West 16.1 mph 23.0 mph N/A   Mostly Cloudy
8:56 PM 64.0 °F 42.1 °F 45% 30.07 in 10.0 mi West 9.2 mph - N/A   Clear
9:56 PM 63.0 °F 42.1 °F 46% 30.08 in 10.0 mi NW 4.6 mph - N/A   Clear
10:56 PM 55.9 °F 42.1 °F 60% 30.09 in 10.0 mi Calm Calm - N/A   Clear
11:56 PM 55.9 °F 43.0 °F 62% 30.10 in 10.0 mi Calm Calm - N/A   Overcast